Location: Rounton
(54.4000°N, 1.3500°W)
Time: 14:24:34
(UTC+00:00)

Transit 2A Rocket - Pass Details

Date: 02 December 2021
Orbit: 584 x 918 km, 66.7° (Epoch: 21 January)

Event Time Altitude Azimuth Distance (km) Brightness Sun altitude
Rises 09:28:55 0° 232° (SW) 3,382 8.4 7.4°
Reaches altitude 10° 09:31:20 10° 235° (SW) 2,491 7.7 7.6°
Maximum altitude 09:37:08 66° 318° (NW) 979 5.5 8.1°
Drops below altitude 10° 09:43:15 10° 40° (NE) 2,619 7.6 8.5°
Sets 09:45:51 0° 44° (NE) 3,568 8.3 8.7°
